MILESOVKA Weather Reports


Display with metric or nautical units.
time (UTC)temp
F
wind
direction
speed
MPH
gust
MPH
rain 1hr
in
rain 24hr
in
rain mn
in
humidity
%
barometer
mb
20260906151744 59 320 5.0 0.0 0.00 0.00 0.00 62
20260906141744 59 320 7.0 0.0 0.00 0.00 0.00 62
20260906132045 61 290 9.0 0.0 0.00 0.00 0.00 59
20260906121744 57 300 9.0 0.0 0.00 0.00 0.00 67
20260906111746 59 300 5.0 0.0 0.00 0.00 0.00 62
20260906102147 54 320 7.0 0.0 0.00 0.00 0.00 71
20260906091744 52 330 12.0 0.0 0.00 0.00 0.00 81
20260906081745 50 320 14.0 0.0 0.00 0.00 0.00 87
20260906072045 48 320 16.0 0.0 0.00 0.00 0.00 93
20260906061744 48 320 18.0 0.0 0.00 0.00 0.00 93
20260906051744 46 320 18.0 0.0 0.00 0.00 0.00 99
20260906042146 48 330 18.0 0.0 0.00 0.00 0.00 93
20260906031744 48 330 22.0 0.0 0.00 0.00 0.00 93
20260906021744 50 320 24.0 0.0 0.00 0.00 0.00 93
20260906012045 50 320 22.0 0.0 0.00 0.00 0.00 93
20260906001744 50 320 24.0 38.0 0.00 0.00 0.00 87
20260905231745 52 310 24.0 36.0 0.00 0.00 0.00 87
20260905222146 54 310 24.0 36.0 0.00 0.00 0.00 81
20260905211744 54 310 24.0 0.0 0.00 0.00 0.00 81
20260905201745 55 300 26.0 40.0 0.00 0.00 0.00 71
20260905192048 57 300 29.0 43.0 0.00 0.00 0.00 67
20260905181744 57 300 26.0 45.0 0.00 0.00 0.00 67
20260905171745 59 290 26.0 45.0 0.00 0.00 0.00 62
20260905162149 59 280 22.0 38.0 0.00 0.00 0.00 62